TIROS 6 DEB, 29006

Orbit data source: Space-Track

TIROS 6 DEB, 29006 is space debris in LEO originally from a launch on Tue, 18 Sep 1962 UTC launched from the Air Force Eastern Test Range (AFETR). Debris objects in space refer to the collection of defunct objects orbiting the Earth. Examples of debris include non-operational satellites, rocket bodies, and fragments generated from explosions, collisions, or faulty payload assembly.

Loading next visibility...
Identifier
29006, 1962-047F
Orbit
LEO
Country
Flag of USUS
Related business
Manufacturer
Unknown
Mission
Spacecraft
Bus & Motor
Unknown
Mass
Unknown
Launch date (UTC)
1962-09-18 (63 years ago)
Launch vehicle
Unknown
Launch site
Air Force Eastern Test Range (AFETR)
Object type
Payload
Rocket body
Debris
Shape & HBR
Unknown shape, 0.1 m
Radar Cross Section
Small (<0.1 m²)

Expand to show TLE details & history
Last TLE update: 9 hours ago

TLE from 9 hours ago
0 TIROS 6 DEB
1 29006U 62047F   26036.05789272  .00001297  00000-0  17245-3 0  9994
2 29006  58.3091 162.2477 0011756 137.9238 222.2710 14.85695398681994
Epoch: 2026-02-05T01:23Z
TLE epoch observation values (Epoch: 2026-02-05T01:23:21.931Z)
Latitude
-0.00002°
Longitude
6.19073°
Altitude
618.897 km
Speed
7.547 km/s
True Right ascension
10h 48m 59s
True Declination
0° 00' 00"
Sunlit
Object was in full shadow at epoch
Visualization orbit readout
Latitude
Unknown
Longitude
Unknown
Altitude
Unknown
Speed
Unknown
Apparent Right ascension
Unknown
Apparent Declination
Unknown
Sunlit
N/A
Visualization observer readout
Local Sidereal Time
12:11:01
Azimuth
Unknown
Elevation
Unknown
Doppler factor
Unknown
Orbital elements
Apogee altitude
619.082 km
Perigee altitude
602.65 km
Semi-major axis
6,989.003 km
Eccentricity
0.00118
Inclination
58.3091°
RAAN
162.2477°
Arg. of periapsis
137.9238°
True anomaly
222.18048°
Mean anomaly
222.271°
Eccentric anomaly
222.22573°
Mean motion
3.71467 °/min
Orbital period
96.91 mins
BSTAR
0.00017245
Loading maneuver chart data...
Computing Atmospheric mass density...
Loading historical data...
Loading historical data...
Loading historical data...
Loading historical data...
Loading historical data...
Loading historical data...
Loading historical data...

Documentation

Showing up to 5 results
|